Nowra Airport

Jump to: basic info | weather | frequencies | runways | comments

Related pages: nearby airports | nearby navaids | notams | map

Basic information (top)

Codes: NOA YSNW
Location: lon -34.948898, lat 150.537003, elev 400 ft / 122 m msl
Status: medium_airport

Weather (top)

Current conditions (rec'd 2014/11/22 12:00Z):

YSNW 221200Z AUTO 27005KT 9999 // NCD 18/17 Q1012

Airport forecast for Sydney Kingsford Smith International Airport 68nm (126km) NNE (rec'd 2014/11/21 00:33Z):

TAF YSSY 212318Z 2200/2306 12010KT 9999 SCT030 
     FM220200 06015KT CAVOK 
     FM220900 03010KT 9999 SCT010 
     FM221800 33008KT CAVOK 
     FM230200 08008KT CAVOK 
      TEMPO 2211/2218 9999 BKN010

Frequencies (top)

Verify before use: may be inaccurate or out of date.

APP: 123.5 MHz (APP)
ATIS: 28.04 MHz (ATIS)
CLD: 128.35 MHz (CLNC DEL)
CTAF: 118.85 MHz (CTAF)
FSS: 121.2 MHz (MELBOURNE CNTR)
GND: 135.85 MHz (GND)
TWR: 118.85 MHz (TWR)

Runways (top)

03/21: 6,713 x 148 ft (2,046 x 45 m) — paved — lighted

08/26: 6,870 x 148 ft (2,094 x 45 m) — paved — lighted — threshold 26 displaced 298 ft (91 m)

Latest comments (top)

No comments yet for Nowra Airport

More... (top)

See also NOTAMs and nearby airports and navaids, or visit the Nowra Airport page at the main OurAirports website..